Temp
-13 -13 -15 -15 -15 -15 -16 -16 -17 -17 -18 -19 -20 -20 -21 -25 -26 -26 -26 -26 -26 -26 -25 -25 -24 -24 -23 -21 -20 -19 -19 -19 -18 -18 -17 -17 -17 -17 -17 -16 -15 -15 -14 -14 -14 -14 -13
-13 -14 -15 -15 -15 -16 -16 -16 -17 -17 -19 -20 -20 -21 -24 -26 -26 -26 -26 -26 -27 -27 -27 -26 -25 -25 -24 -23 -21 -21 -20 -19 -19 -18 -18 -17 -17 -17 -17 -16 -16 -15 -15 -15 -15 -14 -13
-14 -14 -15 -15 -15 -16 -16 -17 -18 -18 -20 -20 -20 -21 -24 -26 -26 -26 -27 -27 -27 -27 -27 -26 -26 -25 -24 -23 -22 -21 -20 -19 -18 -18 -18 -18 -18 -17 -17 -16 -16 -15 -15 -15 -15 -14 -13
-14 -15 -15 -15 -16 -16 -17 -18 -18 -19 -20 -20 -20 -21 -24 -26 -26 -26 -27 -27 -27 -27 -27 -27 -27 -26 -24 -23 -22 -21 -20 -19 -19 -19 -18 -19 -18 -18 -17 -17 -16 -16 -16 -15 -15 -14 -13
-14 -15 -15 -15 -16 -16 -17 -18 -19 -19 -19 -20 -21 -22 -24 -26 -27 -27 -27 -27 -27 -27 -27 -28 -27 -27 -25 -23 -22 -21 -20 -19 -19 -19 -18 -18 -18 -18 -17 -17 -16 -16 -15 -16 -16 -15 -14
-15 -15 -15 -16 -16 -17 -18 -18 -19 -19 -19 -20 -20 -22 -25 -26 -27 -27 -27 -27 -27 -27 -28 -27 -27 -26 -24 -22 -20 -20 -19 -19 -19 -19 -18 -18 -18 -18 -17 -17 -16 -16 -15 -15 -15 -15 -14
-15 -15 -16 -16 -16 -17 -18 -18 -19 -19 -20 -20 -20 -22 -25 -26 -27 -27 -27 -27 -27 -27 -27 -26 -25 -24 -23 -21 -19 -19 -19 -19 -18 -19 -18 -18 -18 -16 -17 -17 -16 -16 -15 -15 -15 -15 -15
-15 -16 -16 -16 -17 -17 -18 -19 -19 -19 -20 -20 -20 -22 -23 -25 -26 -26 -26 -26 -26 -26 -25 -25 -24 -23 -22 -21 -19 -20 -19 -17 -18 -18 -18 -18 -17 -17 -17 -16 -16 -16 -15 -15 -15 -15 -14
-15 -16 -16 -16 -16 -17 -18 -19 -19 -19 -21 -21 -21 -22 -23 -23 -24 -24 -24 -24 -24 -24 -24 -24 -23 -22 -21 -21 -20 -19 -19 -18 -18 -18 -18 -18 -17 -17 -17 -16 -16 -16 -15 -15 -15 -15 -14
-15 -16 -16 -16 -16 -17 -18 -18 -19 -19 -21 -21 -21 -22 -23 -23 -23 -24 -24 -24 -23 -22 -23 -23 -22 -21 -20 -19 -19 -19 -19 -18 -18 -18 -18 -18 -18 -18 -17 -17 -16 -16 -16 -15 -15 -15 -14
-15 -16 -16 -16 -17 -17 -18 -18 -19 -20 -20 -21 -20 -21 -22 -22 -22 -22 -23 -23 -23 -22 -22 -22 -21 -20 -20 -19 -19 -19 -19 -18 -17 -18 -18 -18 -18 -18 -18 -17 -17 -16 -16 -16 -16 -15 -14
-15 -16 -16 -16 -17 -17 -18 -19 -19 -19 -20 -20 -20 -20 -21 -21 -21 -21 -21 -21 -21 -21 -21 -21 -20 -20 -20 -20 -20 -19 -18 -18 -18 -18 -18 -18 -18 -18 -18 -17 -17 -17 -17 -16 -16 -15 -15
-15 -16 -16 -16 -17 -17 -17 -18 -19 -19 -19 -19 -19 -20 -20 -21 -21 -20 -20 -20 -20 -20 -21 -20 -20 -19 -20 -19 -19 -19 -18 -18 -18 -18 -18 -18 -18 -18 -17 -18 -18 -17 -17 -17 -16 -15 -15
-15 -16 -16 -16 -16 -17 -17 -18 -19 -19 -19 -19 -19 -19 -19 -20 -20 -19 -20 -20 -19 -19 -19 -20 -19 -19 -19 -19 -19 -19 -18 -18 -18 -18 -18 -18 -18 -18 -17 -18 -18 -18 -17 -17 -16 -16 -15
-16 -16 -17 -16 -16 -17 -18 -17 -18 -19 -19 -19 -19 -19 -18 -18 -19 -19 -19 -20 -18 -19 -19 -19 -19 -19 -19 -19 -19 -19 -19 -19 -18 -18 -18 -18 -18 -18 -18 -18 -17 -18 -18 -18 -17 -17 -16
-16 -17 -17 -16 -16 -16 -18 -18 -18 -18 -19 -19 -19 -19 -19 -18 -19 -19 -19 -19 -19 -19 -18 -19 -18 -18 -19 -19 -19 -19 -19 -19 -19 -19 -18 -18 -18 -18 -18 -17 -17 -17 -17 -17 -17 -17 -17
-16 -17 -17 -16 -16 -16 -17 -18 -18 -18 -19 -19 -19 -19 -19 -19 -18 -18 -19 -19 -19 -19 -18 -18 -18 -18 -18 -18 -19 -19 -19 -19 -19 -19 -19 -18 -18 -18 -18 -18 -18 -17 -17 -17 -17 -17 -16
-15 -16 -17 -16 -16 -16 -16 -18 -18 -18 -18 -19 -19 -19 -19 -19 -19 -18 -18 -18 -18 -18 -18 -18 -18 -18 -18 -19 -19 -19 -19 -19 -19 -19 -18 -18 -18 -18 -18 -18 -18 -18 -17 -17 -17 -17 -17
-15 -16 -17 -17 -16 -16 -16 -17 -18 -18 -18 -18 -19 -19 -19 -19 -19 -19 -19 -19 -19 -18 -18 -18 -18 -18 -19 -19 -19 -19 -19 -19 -19 -19 -19 -19 -18 -18 -18 -18 -18 -17 -17 -17 -17 -17 -17
-15 -16 -17 -17 -16 -16 -16 -17 -18 -18 -18 -18 -18 -19 -19 -19 -19 -19 -19 -19 -19 -19 -19 -19 -19 -19 -19 -19 -19 -19 -19 -19 -19 -19 -19 -18 -18 -18 -18 -18 -18 -17 -17 -17 -17 -17 -17
-15 -16 -17 -17 -16 -16 -16 -17 -17 -18 -18 -18 -18 -19 -19 -19 -19 -19 -19 -19 -19 -19 -19 -19 -19 -19 -19 -19 -19 -19 -19 -19 -19 -19 -18 -18 -18 -18 -18 -18 -18 -18 -17 -17 -17 -17 -16
-15 -16 -18 -18 -17 -16 -16 -17 -17 -18 -18 -18 -19 -18 -19 -19 -19 -19 -19 -19 -19 -19 -19 -19 -19 -19 -19 -19 -19 -19 -18 -18 -18 -18 -18 -18 -18 -18 -18 -18 -18 -18 -17 -17 -17 -17 -17
-15 -16 -18 -18 -18 -17 -16 -17 -18 -18 -18 -19 -18 -19 -19 -19 -19 -19 -19 -19 -19 -19 -19 -19 -19 -19 -19 -20 -19 -19 -18 -18 -18 -18 -18 -18 -18 -18 -18 -18 -18 -17 -17 -17 -17 -16 -16
-15 -17 -18 -19 -18 -18 -17 -18 -19 -19 -19 -18 -19 -18 -18 -18 -18 -19 -19 -19 -19 -19 -19 -19 -19 -19 -19 -19 -19 -19 -18 -18 -18 -18 -18 -18 -18 -18 -18 -18 -17 -17 -17 -17 -17 -16 -16
-16 -18 -20 -19 -18 -18 -19 -19 -19 -20 -19 -19 -19 -19 -19 -19 -18 -19 -19 -19 -19 -19 -19 -19 -19 -19 -19 -19 -19 -19 -19 -19 -18 -18 -18 -18 -18 -18 -18 -18 -17 -17 -17 -17 -17 -17 -17
-16 -18 -21 -20 -19 -19 -20 -21 -20 -20 -20 -19 -19 -19 -19 -19 -19 -19 -19 -19 -19 -19 -19 -19 -19 -19 -19 -19 -19 -19 -19 -19 -19 -18 -18 -18 -18 -18 -18 -17 -17 -17 -17 -17 -17 -17 -17
-17 -19 -21 -21 -20 -21 -21 -21 -20 -21 -20 -19 -19 -19 -19 -19 -19 -19 -19 -19 -19 -19 -19 -19 -19 -19 -19 -19 -19 -19 -19 -19 -19 -19 -19 -19 -18 -18 -18 -17 -17 -17 -17 -17 -17 -17 -17
-18 -21 -22 -22 -22 -21 -20 -20 -20 -20 -20 -19 -19 -19 -19 -19 -19 -19 -19 -19 -19 -19 -19 -19 -19 -19 -19 -19 -19 -19 -19 -19 -19 -19 -19 -19 -18 -18 -18 -18 -18 -18 -17 -17 -17 -17 -17
-19 -22 -23 -23 -22 -22 -21 -20 -20 -20 -20 -20 -19 -19 -19 -19 -19 -19 -19 -19 -19 -19 -19 -19 -19 -20 -20 -19 -19 -19 -19 -19 -19 -19 -19 -19 -19 -19 -19 -18 -18 -18 -18 -18 -18 -18 -17
Height
5752 5742 5732 5721 5709 5696 5685 5672 5661 5648 5631 5613 5594 5573 5552 5541 5535 5532 5530 5530 5531 5534 5537 5542 5548 5557 5569 5582 5604 5622 5632 5642 5651 5663 5674 5685 5694 5704 5713 5721 5728 5735 5743 5750 5759 5765 5771
5747 5736 5725 5714 5702 5690 5677 5666 5652 5638 5620 5601 5581 5558 5542 5534 5530 5526 5525 5524 5524 5528 5530 5532 5536 5541 5557 5576 5591 5611 5623 5637 5648 5659 5668 5678 5689 5698 5705 5714 5722 5730 5736 5743 5751 5758 5765
5742 5731 5720 5709 5696 5683 5671 5659 5645 5629 5612 5592 5572 5551 5536 5529 5526 5522 5521 5521 5521 5522 5524 5527 5527 5531 5544 5568 5584 5603 5620 5633 5642 5653 5663 5672 5682 5691 5701 5708 5715 5722 5729 5735 5744 5752 5759
5738 5727 5715 5704 5692 5679 5666 5653 5640 5625 5606 5586 5565 5544 5530 5525 5522 5519 5516 5516 5516 5518 5519 5520 5519 5522 5536 5555 5579 5601 5614 5627 5638 5647 5656 5665 5674 5682 5692 5701 5708 5715 5721 5727 5736 5746 5753
5733 5723 5710 5698 5687 5675 5661 5649 5636 5622 5603 5582 5560 5538 5526 5521 5518 5515 5512 5512 5512 5513 5514 5514 5515 5521 5534 5559 5582 5602 5617 5628 5637 5644 5652 5660 5666 5675 5687 5694 5702 5708 5718 5725 5732 5739 5746
5730 5718 5706 5694 5683 5672 5660 5648 5634 5620 5601 5579 5556 5537 5525 5519 5515 5513 5510 5509 5509 5509 5509 5510 5515 5526 5544 5567 5590 5607 5617 5626 5632 5640 5647 5653 5660 5669 5679 5689 5701 5709 5715 5722 5728 5735 5740
5724 5714 5702 5691 5681 5670 5659 5647 5634 5618 5600 5579 5555 5536 5524 5518 5514 5511 5508 5507 5507 5507 5507 5513 5520 5536 5552 5574 5592 5606 5620 5628 5631 5639 5646 5651 5658 5669 5681 5688 5693 5704 5710 5717 5721 5729 5734
5722 5712 5701 5689 5677 5668 5659 5648 5636 5620 5603 5582 5561 5542 5529 5521 5516 5511 5507 5506 5507 5513 5519 5527 5538 5550 5562 5576 5593 5605 5616 5624 5633 5639 5644 5651 5658 5665 5673 5682 5691 5698 5704 5711 5718 5724 5730
5719 5710 5699 5687 5676 5668 5659 5650 5639 5624 5609 5591 5573 5556 5544 5535 5529 5524 5521 5521 5525 5530 5540 5548 5555 5565 5575 5588 5597 5606 5614 5618 5631 5638 5644 5649 5656 5662 5670 5678 5687 5693 5700 5706 5714 5720 5724
5716 5707 5698 5686 5677 5668 5660 5651 5642 5630 5619 5604 5590 5577 5566 5557 5551 5546 5544 5543 5543 5542 5554 5563 5568 5578 5587 5594 5600 5608 5614 5626 5630 5636 5642 5648 5654 5659 5666 5674 5682 5689 5696 5702 5708 5714 5719
5712 5704 5696 5686 5675 5668 5661 5653 5644 5636 5626 5615 5606 5596 5586 5579 5573 5570 5569 5566 5563 5564 5566 5579 5583 5588 5596 5602 5612 5615 5621 5626 5630 5636 5642 5649 5653 5657 5663 5671 5677 5684 5691 5698 5704 5709 5713
5706 5700 5692 5685 5673 5668 5660 5655 5647 5640 5633 5622 5617 5612 5604 5595 5589 5585 5583 5581 5579 5580 5579 5588 5595 5600 5604 5609 5613 5618 5622 5627 5631 5637 5642 5647 5652 5656 5660 5668 5674 5680 5688 5694 5699 5702 5707
5702 5696 5689 5682 5671 5666 5660 5655 5649 5643 5638 5630 5622 5619 5615 5609 5604 5598 5597 5597 5595 5590 5594 5599 5603 5607 5611 5614 5618 5622 5624 5629 5633 5638 5643 5648 5653 5657 5660 5664 5670 5677 5683 5688 5692 5695 5700
5698 5690 5684 5677 5669 5663 5659 5655 5651 5645 5641 5636 5628 5623 5620 5616 5612 5610 5609 5609 5609 5605 5606 5607 5610 5614 5617 5620 5623 5625 5628 5632 5636 5640 5643 5648 5652 5654 5659 5663 5668 5672 5677 5682 5686 5690 5696
5694 5686 5680 5673 5665 5659 5656 5653 5650 5646 5642 5638 5634 5628 5624 5621 5618 5616 5616 5617 5614 5613 5614 5615 5614 5616 5621 5625 5628 5630 5632 5635 5638 5642 5646 5649 5651 5654 5658 5661 5666 5670 5674 5679 5682 5686 5690
5686 5681 5674 5668 5662 5656 5651 5649 5647 5646 5642 5639 5635 5631 5627 5625 5623 5622 5622 5621 5621 5619 5619 5619 5621 5622 5624 5626 5628 5630 5632 5635 5639 5641 5645 5648 5652 5654 5657 5661 5664 5668 5672 5675 5678 5681 5684
5680 5674 5669 5662 5658 5654 5648 5646 5644 5643 5642 5638 5636 5633 5630 5627 5626 5625 5623 5624 5624 5624 5624 5624 5625 5625 5626 5628 5629 5630 5632 5634 5637 5641 5644 5647 5651 5655 5657 5659 5662 5665 5667 5671 5674 5676 5678
5674 5668 5663 5657 5651 5647 5643 5639 5639 5639 5639 5637 5635 5633 5631 5628 5628 5626 5625 5626 5627 5626 5626 5626 5627 5627 5628 5629 5629 5629 5630 5632 5635 5638 5642 5645 5648 5651 5654 5656 5658 5661 5664 5666 5669 5673 5675
5667 5661 5658 5652 5647 5642 5639 5635 5632 5633 5635 5635 5633 5632 5631 5629 5628 5627 5626 5627 5627 5627 5627 5627 5627 5628 5628 5628 5629 5630 5631 5632 5634 5637 5640 5643 5646 5648 5650 5654 5655 5657 5660 5662 5665 5667 5671
5662 5655 5652 5648 5644 5637 5630 5629 5626 5626 5628 5630 5630 5630 5629 5629 5628 5627 5626 5626 5626 5625 5626 5626 5626 5626 5627 5627 5627 5629 5631 5633 5635 5637 5639 5641 5643 5645 5648 5649 5651 5653 5655 5658 5661 5664 5667
5655 5648 5645 5638 5632 5631 5623 5621 5620 5618 5620 5623 5624 5625 5625 5626 5626 5625 5625 5625 5625 5624 5624 5624 5624 5625 5625 5625 5627 5628 5630 5632 5634 5636 5638 5640 5641 5642 5644 5646 5648 5650 5653 5655 5658 5660 5664
5647 5639 5633 5630 5629 5623 5616 5612 5612 5612 5612 5614 5617 5619 5620 5621 5622 5623 5623 5623 5624 5623 5623 5623 5622 5622 5623 5624 5626 5628 5629 5630 5632 5634 5635 5637 5639 5641 5643 5644 5646 5648 5651 5653 5656 5658 5660
5639 5629 5626 5621 5619 5613 5608 5603 5603 5603 5604 5606 5609 5612 5615 5616 5616 5619 5620 5620 5621 5621 5622 5621 5621 5621 5621 5623 5624 5626 5627 5628 5630 5632 5633 5635 5637 5640 5641 5643 5645 5647 5649 5650 5652 5654 5655
5632 5621 5616 5613 5610 5605 5599 5595 5594 5594 5596 5598 5601 5604 5607 5610 5611 5614 5615 5616 5616 5618 5618 5618 5619 5619 5620 5621 5623 5624 5625 5627 5628 5630 5632 5633 5635 5637 5639 5640 5643 5644 5645 5647 5648 5650 5652
5623 5614 5609 5607 5604 5597 5591 5587 5586 5586 5587 5590 5592 5596 5599 5602 5605 5607 5609 5611 5612 5613 5614 5615 5616 5617 5618 5618 5620 5621 5623 5624 5626 5627 5629 5631 5633 5634 5636 5638 5640 5641 5642 5643 5644 5646 5647
5616 5607 5602 5600 5596 5592 5586 5580 5579 5579 5579 5581 5583 5587 5591 5594 5597 5600 5603 5605 5606 5608 5609 5610 5612 5613 5614 5615 5617 5617 5619 5621 5623 5624 5626 5627 5629 5631 5632 5634 5635 5637 5638 5639 5640 5642 5643
5607 5601 5595 5592 5589 5584 5579 5577 5573 5572 5572 5574 5575 5578 5582 5586 5588 5591 5594 5597 5599 5601 5603 5604 5606 5607 5609 5611 5611 5613 5615 5616 5618 5620 5622 5623 5624 5626 5628 5629 5631 5632 5633 5635 5637 5641 5639
5599 5593 5588 5586 5582 5577 5572 5570 5567 5565 5565 5566 5568 5570 5573 5577 5580 5584 5586 5589 5591 5593 5595 5598 5598 5600 5602 5602 5604 5608 5609 5610 5612 5614 5615 5618 5619 5621 5623 5624 5626 5628 5629 5631 5632 5632 5635
5590 5585 5581 5579 5578 5572 5565 5562 5560 5559 5558 5559 5561 5563 5565 5569 5573 5575 5579 5581 5583 5585 5587 5587 5589 5591 5592 5594 5597 5599 5602 5604 5605 5608 5610 5613 5614 5616 5619 5620 5621 5622 5624 5626 5627 5628 5630
Wind_Speed
58 59 60 59 59 59 58 57 57 62 67 71 76 77 64 32 26 25 22 25 26 25 25 32 40 44 49 57 69 62 59 54 53 53 54 57 52 54 50 48 50 55 49 54 43 43 45
57 61 59 59 60 59 59 59 59 64 68 71 76 70 48 29 23 24 14 17 15 16 23 26 34 42 47 49 58 58 56 49 47 48 50 54 53 50 50 49 49 53 50 53 45 42 45
59 63 57 63 60 59 59 57 59 62 68 72 77 70 38 21 15 18 16 15 17 21 23 24 32 39 51 49 53 57 49 46 43 47 47 50 52 48 50 49 47 50 53 51 51 40 43
60 63 63 63 59 60 60 54 56 61 67 70 72 63 33 20 17 14 17 17 17 17 17 22 19 20 42 55 54 60 37 51 34 40 45 48 54 50 52 50 49 49 52 50 51 44 40
60 64 64 64 56 59 59 53 55 61 66 70 72 54 30 17 19 14 11 9 14 13 16 18 16 22 48 53 53 52 40 35 36 36 41 48 57 51 51 51 49 49 47 47 44 47 44
62 66 67 67 60 59 56 52 54 61 66 70 67 49 30 18 17 15 9 8 11 14 12 10 20 33 55 56 47 41 42 31 41 45 38 36 47 53 52 51 46 45 45 44 42 41 46
61 63 65 69 57 56 54 51 52 61 66 70 62 48 33 22 15 13 12 12 10 5 13 21 35 52 61 63 47 36 40 26 37 39 34 39 40 48 51 49 48 45 41 41 41 40 41
64 65 65 67 57 54 53 48 50 59 63 69 57 47 36 27 21 18 15 19 30 35 39 43 46 50 61 58 46 31 28 27 23 25 33 38 37 46 51 51 48 47 47 41 40 39 40
65 65 65 71 55 52 50 45 48 55 58 62 54 50 46 43 41 40 41 46 52 54 47 43 46 46 51 55 32 31 31 21 22 23 29 31 32 44 50 48 47 45 45 42 38 40 39
63 62 63 71 52 48 46 39 42 49 49 48 52 49 48 49 50 49 49 52 52 40 42 46 47 45 45 44 35 29 27 25 25 23 28 31 26 36 48 47 46 44 42 39 37 37 40
63 61 62 71 50 44 42 35 36 41 42 38 42 44 45 48 51 51 45 41 38 37 46 40 42 43 43 40 33 21 15 14 31 25 27 23 26 32 43 43 44 44 43 39 37 38 38
62 60 60 68 47 40 36 30 29 34 34 37 35 38 38 39 39 36 30 31 34 44 42 37 35 29 33 32 28 23 20 23 25 21 28 21 23 26 35 38 40 40 39 38 38 39 40
60 60 60 63 41 36 31 25 21 27 28 29 29 28 27 20 33 38 32 27 32 38 37 32 29 29 30 24 23 18 17 25 25 24 23 22 19 19 14 36 38 37 38 38 39 41 42
61 61 60 53 38 32 29 20 17 19 22 23 24 22 20 14 17 26 27 21 27 28 24 19 17 19 19 19 15 17 18 20 21 19 22 27 29 18 22 25 26 34 37 38 38 40 39
63 62 62 42 37 30 24 21 13 11 15 18 17 18 19 14 20 25 25 17 26 21 22 17 17 14 15 16 12 13 10 14 17 16 20 24 26 20 17 19 27 22 25 30 33 33 33
63 58 48 38 34 28 21 19 11 8 7 11 12 13 15 12 15 14 14 17 19 18 13 13 17 18 15 13 13 12 15 16 16 19 16 19 23 25 20 22 25 24 24 25 23 25 27
57 50 42 34 30 28 20 14 12 9 2 5 7 8 12 13 9 9 16 11 17 18 14 13 11 12 15 13 13 12 13 17 17 20 20 18 20 23 25 20 26 25 23 23 22 22 22
52 49 42 34 31 29 23 13 11 9 7 3 4 5 7 8 9 12 14 11 12 11 10 9 9 9 9 10 12 14 14 16 18 17 17 17 18 19 22 23 21 22 23 22 22 20 19
54 51 43 34 29 27 26 18 14 12 10 9 7 6 7 8 10 12 11 8 8 8 8 9 8 6 5 5 6 11 14 14 16 16 14 14 17 19 20 21 20 20 21 21 21 21 21
56 53 46 40 29 25 27 25 16 15 12 12 11 9 8 10 10 12 11 8 7 8 9 8 6 5 7 8 8 12 15 14 13 12 11 12 13 15 18 18 19 20 18 18 18 19 19
59 57 51 39 24 24 26 23 21 16 15 18 15 14 14 11 11 13 10 5 5 4 4 10 10 9 7 12 13 17 15 15 16 16 16 15 15 15 16 17 17 18 19 18 18 22 21
58 57 50 33 29 25 24 24 19 18 17 16 21 18 15 15 16 14 12 9 7 5 4 3 5 9 11 12 13 16 13 12 13 14 15 15 16 15 15 16 15 16 17 17 18 18 18
57 59 53 31 23 24 24 27 22 18 20 16 21 21 19 17 16 17 19 16 14 11 7 6 4 5 8 12 13 15 15 14 13 13 14 14 14 15 14 14 15 15 15 16 17 18 19
56 59 55 29 21 27 28 27 23 18 18 20 21 24 22 21 18 16 16 16 16 16 14 13 10 9 10 13 14 15 15 15 16 16 15 15 13 14 15 16 15 14 14 14 15 16 17
54 54 45 32 27 29 29 27 21 18 19 22 21 27 27 24 21 19 19 17 15 15 15 16 15 14 11 12 16 16 15 16 16 18 17 17 16 16 16 15 14 13 13 13 13 15 17
53 53 35 28 29 33 28 24 22 17 20 23 23 28 30 28 25 22 20 19 18 19 18 17 17 19 19 16 15 14 18 21 20 19 18 19 19 19 18 17 16 14 14 13 13 15 17
50 54 29 27 30 30 26 24 22 20 19 22 22 25 31 31 30 27 24 24 23 22 21 22 21 21 20 24 24 21 18 17 19 23 23 22 21 20 20 19 18 16 14 15 15 15 17
47 45 27 26 33 28 24 22 20 22 21 25 23 24 28 31 32 30 27 26 27 26 26 25 26 26 24 26 25 27 27 25 21 19 20 26 26 25 24 22 20 17 16 15 15 16 18
43 39 32 29 32 31 26 21 19 17 21 23 25 25 25 30 32 30 30 25 24 27 29 31 31 30 32 32 30 28 27 31 29 25 23 22 23 24 24 25 24 21 18 16 17 18 20
Wind_Direction
340 342 346 346 347 342 339 336 335 334 331 333 335 331 328 317 308 303 269 273 261 252 241 238 239 233 217 219 218 216 218 217 216 216 217 211 214 212 214 217 219 215 218 221 220 216 212
343 347 348 346 347 347 346 341 340 338 339 341 346 339 329 322 316 303 293 273 234 234 244 250 245 240 227 217 210 208 212 210 212 214 214 210 209 213 213 215 219 216 216 220 221 219 216
347 349 350 344 346 346 347 346 343 343 342 344 341 347 328 326 334 322 296 281 248 239 254 254 262 238 222 206 201 200 208 198 209 211 210 207 204 208 210 211 215 218 219 221 220 223 221
348 350 353 349 343 346 345 349 345 347 346 347 348 348 339 310 325 325 294 279 258 257 261 265 265 208 189 189 191 188 189 201 203 197 206 202 202 205 207 209 211 214 218 222 220 221 222
348 350 355 355 349 347 347 350 348 350 351 350 349 349 350 321 313 330 308 280 259 259 264 266 206 185 171 171 177 183 194 196 204 206 207 206 204 199 205 206 209 211 215 220 225 220 227
348 351 355 357 348 346 348 352 351 354 356 355 353 354 355 345 338 333 325 285 269 264 271 200 174 162 156 156 159 173 188 194 201 207 206 200 204 196 201 203 207 212 216 216 218 223 226
346 353 355 356 348 348 350 353 352 359 1 2 1 2 3 358 354 343 327 313 294 259 137 138 140 147 148 151 146 160 168 159 189 200 210 199 197 202 198 202 206 208 213 214 218 218 222
344 352 354 357 348 349 354 355 359 4 7 9 14 21 27 24 23 22 43 82 98 107 111 122 135 145 151 160 156 154 143 169 179 191 194 196 197 199 196 201 204 208 213 215 219 221 223
341 349 354 355 349 351 353 357 6 10 14 19 31 42 51 60 67 76 86 96 103 103 104 120 130 140 153 159 151 161 161 162 171 183 188 191 196 199 197 201 206 207 212 214 218 221 228
340 346 351 354 348 351 356 359 13 13 25 29 38 45 60 71 77 82 91 101 108 86 103 125 133 141 152 160 162 166 174 169 185 198 185 194 202 200 198 201 205 210 214 215 218 222 225
336 341 348 352 346 349 358 0 14 19 30 31 36 46 67 72 79 80 82 95 103 103 110 131 136 144 153 161 156 148 174 185 194 200 187 193 196 200 201 202 206 209 213 215 220 225 229
333 339 347 348 346 346 357 1 16 26 27 46 43 56 74 81 71 74 79 102 111 118 118 129 130 142 148 160 170 157 159 139 180 186 201 194 193 202 207 206 207 210 214 218 222 228 232
331 338 344 345 345 346 352 360 13 29 27 38 56 60 56 68 73 81 87 105 124 113 115 111 118 140 155 162 158 154 150 158 138 150 166 174 182 185 202 207 208 211 214 218 222 227 233
329 335 338 343 343 342 347 356 5 33 32 35 53 65 67 82 88 70 79 100 132 109 109 115 140 148 150 139 128 134 156 163 163 154 181 169 177 160 187 183 202 209 215 220 224 229 232
327 332 336 345 342 341 344 348 355 27 38 39 49 68 61 94 83 74 79 96 127 121 113 106 115 140 155 152 141 155 173 166 156 162 176 180 192 194 188 178 198 200 209 213 221 227 230
326 333 342 345 341 336 339 339 344 352 51 44 51 67 72 100 107 82 97 111 136 134 127 124 137 146 152 164 172 184 200 202 197 197 190 198 196 203 204 197 183 192 203 208 215 221 222
328 335 343 342 340 332 327 330 325 326 319 80 57 68 94 99 113 84 105 110 137 150 151 145 151 156 168 180 200 207 209 216 214 207 208 202 200 204 211 208 207 210 218 220 226 225 224
329 336 336 338 333 325 321 294 309 312 284 193 119 102 105 127 113 109 106 110 128 131 147 160 163 165 173 192 204 209 205 197 200 204 213 217 215 215 218 223 226 223 223 228 230 226 223
326 330 332 335 332 328 317 300 281 291 245 240 186 146 143 145 145 132 128 131 135 136 146 153 161 177 189 189 193 194 193 191 196 191 195 211 215 218 218 219 220 225 225 223 221 213 207
324 326 329 335 332 325 311 306 286 269 243 231 216 196 167 165 159 148 136 141 156 172 173 170 179 203 208 188 182 183 188 196 194 199 214 219 221 221 219 224 228 226 225 220 214 205 205
320 323 327 332 316 324 309 304 294 262 259 230 229 222 207 195 181 181 179 181 196 193 208 224 228 225 220 207 193 183 194 198 202 210 211 213 209 206 209 211 212 213 209 202 196 200 208
317 318 322 325 329 319 301 296 288 265 250 244 221 228 219 212 214 210 206 211 198 199 213 207 219 223 227 212 206 194 210 209 208 205 207 201 201 201 204 209 212 210 208 205 208 212 215
313 313 318 321 318 307 296 295 290 271 248 248 232 224 231 225 218 223 225 221 219 217 216 209 197 210 200 203 207 215 214 213 214 213 206 206 205 209 210 215 215 215 216 218 219 219 224
312 312 315 319 306 300 292 292 288 264 251 240 236 228 229 231 228 225 229 231 229 225 224 212 219 214 207 211 218 216 214 212 215 213 214 220 218 214 212 214 221 224 224 221 225 226 221
307 308 318 315 311 292 297 297 284 265 252 239 240 231 222 232 234 233 235 234 235 236 231 231 222 217 223 220 219 220 221 221 221 220 218 220 219 221 222 225 224 227 229 225 229 230 224
304 304 313 309 302 299 307 303 290 266 248 240 239 228 230 225 231 236 241 242 241 240 241 240 239 234 225 228 233 230 228 227 227 225 223 221 220 222 225 230 236 238 237 233 233 230 224
297 299 309 309 307 310 310 308 296 286 249 240 236 231 229 231 234 232 235 241 246 247 246 247 245 244 242 235 231 233 241 243 239 234 234 234 229 231 232 235 240 241 241 238 238 230 225
294 299 297 312 313 313 314 305 295 280 265 239 235 237 233 234 239 239 241 243 245 246 247 249 250 247 244 243 244 237 240 240 241 243 244 240 240 239 239 240 242 247 246 244 244 239 229
293 297 292 309 313 316 313 304 293 282 263 251 245 242 241 238 239 244 244 246 253 257 258 257 253 250 248 246 246 245 244 243 240 241 245 249 245 244 242 241 241 241 241 241 244 241 235